STARLINK-1418 (45708 NORAD) Tracking and Keplerian Element Data

This shows tracking and keplerian element data for the satellite.

Feedback or suggestion? Click here.




ElementValue
Catalog45708
NameSTARLINK-1418
Epoch Orbit1075
Epoch Day218.91667824
Epoch Year2020
RAAN221.3311
Inclination52.9996
Eccentricity0.0001216
Argument of Perigee45.3884
Mean Anonmoly218.1985
Mean Motion15.62747155
Decay Rate0.0005398
L11 45708U 20035BD 20218.91667824 .00053980 00000-0 59157-3 0 9995
L22 45708 52.9996 221.3311 0001216 45.3884 218.1985 15.62747155 10751

Live tracking and technical data element details for STARLINK-1418 (NORAD 45708). STARLINK-1418 can be tracked NOW for your location showing map with azimuth and elevation plus other details from your city location.

Track the satellite on the map from your city or location and see movement details for azimuth, elevation, latitude, longitude, range, height, and movement on the map or in text.







IsCatalogInMostPopularTable: catalog: 45708, numindb: 9
Update: records affected: 1



GetName: 45708 STARLINK-1418

Hit Count: updated at: Sat, 08 Aug 2020 00:33:11 GMT